This demonstration page uses our WeatherBlox Daily Observations layout. Learn more.

Left ArrowRight Arrow

Hourly Observations for September 29, 2022

Temp ( °F °C ) Dew Point ( °F °C ) Humidity (%) Winds ( mph kmh ) Pressure ( in mb ) Visibility ( mi km ) Precip ( " mm )
12:53 am 00:53 Mostly Clear 74 23.3 49 9.4 41 41 ESE 7 11 30.18 1022 10 16 0.00 0.00
1:53 am 01:53 Clear 71 21.7 50 10 47 47 ESE 7 11 30.18 1022 10 16 0.00 0.00
2:53 am 02:53 Clear 72 22.2 50 10 46 46 ESE 8 13 30.19 1022 10 16 0.00 0.00
3:53 am 03:53 Clear 69 20.6 51 10.6 53 53 ESE 9 15 30.19 1022 10 16 0.00 0.00
4:53 am 04:53 Clear 69 20.6 51 10.6 53 53 ESE 9 15 30.19 1023 10 16 0.00 0.00
5:53 am 05:53 Clear 68 20 51 10.6 55 55 ESE 10 17 30.22 1023 10 16 0.00 0.00
6:53 am 06:53 Clear 65 18.3 50 10 58 58 ESE 9 15 30.24 1024 10 16 0.00 0.00
7:53 am 07:53 Sunny 64 17.8 48 8.9 56 56 ESE 9 15 30.26 1025 10 16 0.00 0.00
8:53 am 08:53 Sunny 66 18.9 44 6.7 45 45 ESE 14 22 30.25 1025 10 16 0.00 0.00
9:53 am 09:53 Sunny 67 19.4 42 5.6 40 40 ESE 17 28 30.25 1024 10 16 0.00 0.00
10:53 am 10:53 Sunny 70 21.1 42 5.6 36 36 ESE 13 20 30.25 1025 10 16 0.00 0.00
11:53 am 11:53 Sunny 73 22.8 44 6.7 35 35 SSE 12 19 30.22 1024 10 16 0.00 0.00
12:53 pm 12:53 Sunny 74 23.3 45 7.2 36 36 SE 12 19 30.20 1023 10 16 0.00 0.00
1:53 pm 13:53 Sunny 77 25 47 8.3 35 35 SE 10 17 30.17 1022 10 16 0.00 0.00
2:53 pm 14:53 Sunny 78 25.6 47 8.3 33 33 VRB 3 6 30.13 1020 10 16 0.00 0.00
3:53 pm 15:53 Sunny 79 26.1 48 8.9 34 34 ESE 5 7 30.11 1020 10 16 0.00 0.00
4:53 pm 16:53 Sunny 80 26.7 49 9.4 34 34 E 9 15 30.09 1019 10 16 0.00 0.00
5:53 pm 17:53 Sunny 79 26.1 49 9.4 35 35 ESE 9 15 30.08 1019 10 16 0.00 0.00
6:53 pm 18:53 Sunny 77 25 49 9.4 37 37 E 8 13 30.08 1019 10 16 0.00 0.00
7:53 pm 19:53 Clear 74 23.3 49 9.4 41 41 E 6 9 30.08 1019 10 16 0.00 0.00
8:53 pm 20:53 Clear 73 22.8 50 10 44 44 E 8 13 30.09 1019 10 16 0.00 0.00
9:53 pm 21:53 Clear 72 22.2 51 10.6 48 48 E 9 15 30.09 1019 10 16 0.00 0.00
10:53 pm 22:53 Clear 70 21.1 51 10.6 51 51 E 8 13 30.10 1019 10 16 0.00 0.00
11:53 pm 23:53 Clear 68 20 48 8.9 49 49 E 7 11 30.10 1019 10 16 0.00 0.00

Powered by Vaisala Xweather